Hourly Data Report for November 02, 2020

VICTORIA UNIVERSITY CS
BRITISH COLUMBIA
Current Station Operator: ECCC - MSC

48°27'25.200" N
123°18'16.600" W
60.10 m
1018598
71783
WYJ

Download Data

Hourly Data (November 2020)
Hourly Data Report for November 2, 2020
TIME
LST
Temp Definition
°C
Dew Point Definition
°C
Rel Hum Definition
%
Precip. Amount Definition
mm

Wind Dir Definition
10's deg

Wind Spd Definition
km/h
Visibility Definition
km
Stn Press Definition
kPa
Hmdx Definition


Wind Chill Definition


Weather Definition


00:00 4.4 4.3 100 0.0 2 2   101.37     LegendNANA
01:00 3.9 3.8 100 0.0 35 2   101.36     LegendNANA
02:00 3.7 3.6 99 0.0 32 2   101.37     LegendNANA
03:00 4.6 4.5 99 0.0 3 2   101.34     LegendNANA
04:00 3.4 3.3 99 0.0 1 2   101.31     LegendNANA
05:00 2.9 2.8 99 0.0 30 2   101.31     LegendNANA
06:00 3.0 2.9 99 0.0 3 2   101.28     LegendNANA
07:00 2.5 2.5 100 0.0 30 1   101.30     LegendNANA
08:00 5.4 5.3 100 0.0 9 2   101.29     LegendNANA
09:00 7.0 6.9 100 0.0 2 3   101.30     LegendNANA
10:00 7.4 7.3 99 0.0 12 1   101.26     LegendNANA
11:00 7.6 7.5 99 0.0 8 3   101.23     LegendNANA
12:00 7.5 7.4 99 0.0 30 3   101.17     LegendNANA
13:00 7.8 7.7 99 0.0 6 1   101.06     LegendNANA
14:00 8.2 8.0 99 0.0 16 1   101.00     LegendNANA
15:00 8.3 7.5 94 0.0 12 2   100.91     LegendNANA
16:00 7.3 7.3 100 0.0 16 3   100.85     LegendNANA
17:00 7.0 7.0 100 0.0 21 2   100.80     LegendNANA
18:00 5.9 5.8 100 0.0 27 2   100.79     LegendNANA
19:00 5.8 5.8 100 0.0 21 4   100.77     LegendNANA
20:00 6.3 6.2 100 0.0 17 3   100.73     LegendNANA
21:00 6.3 6.2 100 0.0 10 1   100.67     LegendNANA
22:00 5.8 5.7 100 0.0 19 4   100.59     LegendNANA
23:00 5.3 5.2 100 0.0 36 4   100.59     LegendNANA

Notes on Data Quality.

Legend

  • E = Estimated
  • M = Missing
  • NA = Not Available*
  • [empty] = Indicates an unobserved value
Date modified: